Year,Month,Day,Hour,Minute,Value (Times are PST for temperature in C)
2009,05,28,00,00,9.40
2009,05,28,00,01,9.40
2009,05,28,00,02,9.40
2009,05,28,00,03,9.40
2009,05,28,00,04,9.40
2009,05,28,00,05,9.30
2009,05,28,00,06,9.30
2009,05,28,00,07,9.30
2009,05,28,00,08,9.30
2009,05,28,00,09,9.20
2009,05,28,00,10,9.20
2009,05,28,00,11,9.20
2009,05,28,00,12,9.20
2009,05,28,00,13,9.20
2009,05,28,00,14,9.20
2009,05,28,00,15,9.20
2009,05,28,00,16,9.20
2009,05,28,00,17,9.20
2009,05,28,00,18,9.20
2009,05,28,00,19,9.20
2009,05,28,00,20,9.20
2009,05,28,00,21,9.20
2009,05,28,00,22,9.10
2009,05,28,00,23,9.10
2009,05,28,00,24,9.10
2009,05,28,00,25,9.10
2009,05,28,00,26,9.10
2009,05,28,00,27,9.00
2009,05,28,00,28,9.00
2009,05,28,00,29,9.00
2009,05,28,00,30,9.00
2009,05,28,00,31,9.00
2009,05,28,00,32,9.00
2009,05,28,00,33,9.10
2009,05,28,00,34,9.10
2009,05,28,00,35,9.10
2009,05,28,00,36,9.10
2009,05,28,00,37,9.10
2009,05,28,00,38,9.10
2009,05,28,00,39,9.10
2009,05,28,00,40,9.10
2009,05,28,00,41,9.10
2009,05,28,00,42,9.10
2009,05,28,00,43,9.20
2009,05,28,00,44,9.20
2009,05,28,00,45,9.30
2009,05,28,00,46,9.30
2009,05,28,00,47,9.40
2009,05,28,00,48,9.40
2009,05,28,00,49,9.50
2009,05,28,00,50,9.50
2009,05,28,00,51,9.60
2009,05,28,00,52,9.60
2009,05,28,00,53,9.60
2009,05,28,00,54,9.50
2009,05,28,00,55,9.50
2009,05,28,00,56,9.50
2009,05,28,00,57,9.50
2009,05,28,00,58,9.50
2009,05,28,00,59,9.40
2009,05,28,01,00,9.40
2009,05,28,01,01,9.40
2009,05,28,01,02,9.30
2009,05,28,01,03,9.30
2009,05,28,01,04,9.30
2009,05,28,01,05,9.30
2009,05,28,01,06,9.30
2009,05,28,01,07,9.30
2009,05,28,01,08,9.30
2009,05,28,01,09,9.30
2009,05,28,01,10,9.30
2009,05,28,01,11,9.20
2009,05,28,01,12,9.20
2009,05,28,01,13,9.20
2009,05,28,01,14,9.20
2009,05,28,01,15,9.20
2009,05,28,01,16,9.30
2009,05,28,01,17,9.30
2009,05,28,01,18,9.30
2009,05,28,01,19,9.30
2009,05,28,01,20,9.30
2009,05,28,01,21,9.30
2009,05,28,01,22,9.20
2009,05,28,01,23,9.20
2009,05,28,01,24,9.20
2009,05,28,01,25,9.20
2009,05,28,01,26,9.10
2009,05,28,01,27,9.10
2009,05,28,01,28,9.10
2009,05,28,01,29,9.10
2009,05,28,01,30,9.00
2009,05,28,01,31,9.00
2009,05,28,01,32,9.00
2009,05,28,01,33,8.90
2009,05,28,01,34,8.90
2009,05,28,01,35,8.90
2009,05,28,01,36,8.90
2009,05,28,01,37,8.90
2009,05,28,01,38,8.80
2009,05,28,01,39,8.80
2009,05,28,01,40,8.80
2009,05,28,01,41,8.80
2009,05,28,01,42,8.80
2009,05,28,01,43,8.80
2009,05,28,01,44,8.80
2009,05,28,01,45,8.80
2009,05,28,01,46,8.80
2009,05,28,01,47,8.80
2009,05,28,01,48,8.80
2009,05,28,01,49,8.80
2009,05,28,01,50,8.80
2009,05,28,01,51,8.80
2009,05,28,01,52,8.80
2009,05,28,01,53,8.80
2009,05,28,01,54,8.70
2009,05,28,01,55,8.70
2009,05,28,01,56,8.70
2009,05,28,01,57,8.70
2009,05,28,01,58,8.70
2009,05,28,01,59,8.70
2009,05,28,02,00,8.70
2009,05,28,02,01,8.60
2009,05,28,02,02,8.60
2009,05,28,02,03,8.60
2009,05,28,02,04,8.60
2009,05,28,02,05,8.50
2009,05,28,02,06,8.50
2009,05,28,02,07,8.50
2009,05,28,02,08,8.50
2009,05,28,02,09,8.50
2009,05,28,02,10,8.50
2009,05,28,02,11,8.60
2009,05,28,02,12,8.60
2009,05,28,02,13,8.60
2009,05,28,02,14,8.60
2009,05,28,02,15,8.60
2009,05,28,02,16,8.60
2009,05,28,02,17,8.60
2009,05,28,02,18,8.60
2009,05,28,02,19,8.60
2009,05,28,02,20,8.60
2009,05,28,02,21,8.60
2009,05,28,02,22,8.60
2009,05,28,02,23,8.60
2009,05,28,02,24,8.60
2009,05,28,02,25,8.60
2009,05,28,02,26,8.60
2009,05,28,02,27,8.50
2009,05,28,02,28,8.50
2009,05,28,02,29,8.50
2009,05,28,02,30,8.40
2009,05,28,02,31,8.40
2009,05,28,02,32,8.40
2009,05,28,02,33,8.30
2009,05,28,02,34,8.30
2009,05,28,02,35,8.30
2009,05,28,02,36,8.20
2009,05,28,02,37,8.20
2009,05,28,02,38,8.20
2009,05,28,02,39,8.20
2009,05,28,02,40,8.10
2009,05,28,02,41,8.10
2009,05,28,02,42,8.00
2009,05,28,02,43,8.00
2009,05,28,02,44,8.00
2009,05,28,02,45,8.00
2009,05,28,02,46,8.00
2009,05,28,02,47,8.00
2009,05,28,02,48,8.00
2009,05,28,02,49,8.00
2009,05,28,02,50,8.00
2009,05,28,02,51,8.00
2009,05,28,02,52,8.00
2009,05,28,02,53,8.00
2009,05,28,02,54,8.00
2009,05,28,02,55,8.00
2009,05,28,02,56,8.00
2009,05,28,02,57,8.00
2009,05,28,02,58,8.00
2009,05,28,02,59,8.00
2009,05,28,03,00,8.00
2009,05,28,03,01,8.00
2009,05,28,03,02,8.00
2009,05,28,03,03,8.00
2009,05,28,03,04,8.00
2009,05,28,03,05,7.90
2009,05,28,03,06,7.90
2009,05,28,03,07,7.90
2009,05,28,03,08,7.90
2009,05,28,03,09,7.90
2009,05,28,03,10,7.90
2009,05,28,03,11,7.90
2009,05,28,03,12,7.90
2009,05,28,03,13,7.90
2009,05,28,03,14,7.90
2009,05,28,03,15,7.80
2009,05,28,03,16,7.80
2009,05,28,03,17,7.80
2009,05,28,03,18,7.80
2009,05,28,03,19,7.80
2009,05,28,03,20,7.80
2009,05,28,03,21,7.80
2009,05,28,03,22,7.80
2009,05,28,03,23,7.80
2009,05,28,03,24,7.80
2009,05,28,03,25,7.80
2009,05,28,03,26,7.80
2009,05,28,03,27,7.80
2009,05,28,03,28,7.80
2009,05,28,03,29,7.80
2009,05,28,03,30,7.80
2009,05,28,03,31,7.80
2009,05,28,03,32,7.70
2009,05,28,03,33,7.70
2009,05,28,03,34,7.70
2009,05,28,03,35,7.70
2009,05,28,03,36,7.70
2009,05,28,03,37,7.70
2009,05,28,03,38,7.70
2009,05,28,03,39,7.70
2009,05,28,03,40,7.70
2009,05,28,03,41,7.70
2009,05,28,03,42,7.70
2009,05,28,03,43,7.70
2009,05,28,03,44,7.70
2009,05,28,03,45,7.70
2009,05,28,03,46,7.70
2009,05,28,03,47,7.70
2009,05,28,03,48,7.70
2009,05,28,03,49,7.70
2009,05,28,03,50,7.70
2009,05,28,03,51,7.70
2009,05,28,03,52,7.60
2009,05,28,03,53,7.60
2009,05,28,03,54,7.60
2009,05,28,03,55,7.60
2009,05,28,03,56,7.60
2009,05,28,03,57,7.60
2009,05,28,03,58,7.60
2009,05,28,03,59,7.50
2009,05,28,04,00,7.50
2009,05,28,04,01,7.50
2009,05,28,04,02,7.50
2009,05,28,04,03,7.50
2009,05,28,04,04,7.50
2009,05,28,04,05,7.40
2009,05,28,04,06,7.40
2009,05,28,04,07,7.40
2009,05,28,04,08,7.40
2009,05,28,04,09,7.30
2009,05,28,04,10,7.30
2009,05,28,04,11,7.30
2009,05,28,04,12,7.30
2009,05,28,04,13,7.30
2009,05,28,04,14,7.30
2009,05,28,04,15,7.30
2009,05,28,04,16,7.30
2009,05,28,04,17,7.30
2009,05,28,04,18,7.40
2009,05,28,04,19,7.40
2009,05,28,04,20,7.40
2009,05,28,04,21,7.40
2009,05,28,04,22,7.50
2009,05,28,04,23,7.50
2009,05,28,04,24,7.60
2009,05,28,04,25,7.60
2009,05,28,04,26,7.60
2009,05,28,04,27,7.70
2009,05,28,04,28,7.70
2009,05,28,04,29,7.70
2009,05,28,04,30,7.80
2009,05,28,04,31,7.80
2009,05,28,04,32,7.80
2009,05,28,04,33,7.80
2009,05,28,04,34,7.80
2009,05,28,04,35,7.80
2009,05,28,04,36,7.80
2009,05,28,04,37,7.80
2009,05,28,04,38,7.90
2009,05,28,04,39,7.90
2009,05,28,04,40,7.90
2009,05,28,04,41,7.90
2009,05,28,04,42,7.90
2009,05,28,04,43,8.00
2009,05,28,04,44,8.00
2009,05,28,04,45,8.00
2009,05,28,04,46,8.00
2009,05,28,04,47,8.00
2009,05,28,04,48,8.00
2009,05,28,04,49,8.00
2009,05,28,04,50,7.90
2009,05,28,04,51,7.90
2009,05,28,04,52,7.90
2009,05,28,04,53,7.90
2009,05,28,04,54,7.90
2009,05,28,04,55,7.90
2009,05,28,04,56,7.90
2009,05,28,04,57,7.90
2009,05,28,04,58,7.90
2009,05,28,04,59,8.00
2009,05,28,05,00,8.00
2009,05,28,05,01,8.10
2009,05,28,05,02,8.10
2009,05,28,05,03,8.20
2009,05,28,05,04,8.20
2009,05,28,05,05,8.30
2009,05,28,05,06,8.30
2009,05,28,05,07,8.30
2009,05,28,05,08,8.30
2009,05,28,05,09,8.30
2009,05,28,05,10,8.40
2009,05,28,05,11,8.40
2009,05,28,05,12,8.40
2009,05,28,05,13,8.40
2009,05,28,05,14,8.40
2009,05,28,05,15,8.40
2009,05,28,05,16,8.40
2009,05,28,05,17,8.40
2009,05,28,05,18,8.40
2009,05,28,05,19,8.40
2009,05,28,05,20,8.40
2009,05,28,05,21,8.30
2009,05,28,05,22,8.30
2009,05,28,05,23,8.30
2009,05,28,05,24,8.40
2009,05,28,05,25,8.40
2009,05,28,05,26,8.40
2009,05,28,05,27,8.40
2009,05,28,05,28,8.40
2009,05,28,05,29,8.40
2009,05,28,05,30,8.40
2009,05,28,05,31,8.40
2009,05,28,05,32,8.40
2009,05,28,05,33,8.40
2009,05,28,05,34,8.50
2009,05,28,05,35,8.50
2009,05,28,05,36,8.50
2009,05,28,05,37,8.50
2009,05,28,05,38,8.60
2009,05,28,05,39,8.60
2009,05,28,05,40,8.60
2009,05,28,05,41,8.60
2009,05,28,05,42,8.60
2009,05,28,05,43,8.60
2009,05,28,05,44,8.60
2009,05,28,05,45,8.50
2009,05,28,05,46,8.50
2009,05,28,05,47,8.50
2009,05,28,05,48,8.50
2009,05,28,05,49,8.50
2009,05,28,05,50,8.50
2009,05,28,05,51,8.50
2009,05,28,05,52,8.40
2009,05,28,05,53,8.40
2009,05,28,05,54,8.40
2009,05,28,05,55,8.40
2009,05,28,05,56,8.40
2009,05,28,05,57,8.40
2009,05,28,05,58,8.40
2009,05,28,05,59,8.30
2009,05,28,06,00,8.30
2009,05,28,06,01,8.30
2009,05,28,06,02,8.40
2009,05,28,06,03,8.40
2009,05,28,06,04,8.40
2009,05,28,06,05,8.40
2009,05,28,06,06,8.40
2009,05,28,06,07,8.40
2009,05,28,06,08,8.40
2009,05,28,06,09,8.50
2009,05,28,06,10,8.50
2009,05,28,06,11,8.50
2009,05,28,06,12,8.50
2009,05,28,06,13,8.50
2009,05,28,06,14,8.50
2009,05,28,06,15,8.50
2009,05,28,06,16,8.50
2009,05,28,06,17,8.60
2009,05,28,06,18,8.60
2009,05,28,06,19,8.60
2009,05,28,06,20,8.60
2009,05,28,06,21,8.60
2009,05,28,06,22,8.70
2009,05,28,06,23,8.70
2009,05,28,06,24,8.70
2009,05,28,06,25,8.80
2009,05,28,06,26,8.80
2009,05,28,06,27,8.90
2009,05,28,06,28,8.90
2009,05,28,06,29,8.90
2009,05,28,06,30,9.00
2009,05,28,06,31,9.10
2009,05,28,06,32,9.10
2009,05,28,06,33,9.20
2009,05,28,06,34,9.20
2009,05,28,06,35,9.30
2009,05,28,06,36,9.40
2009,05,28,06,37,9.40
2009,05,28,06,38,9.40
2009,05,28,06,39,9.50
2009,05,28,06,40,9.50
2009,05,28,06,41,9.60
2009,05,28,06,42,9.60
2009,05,28,06,43,9.60
2009,05,28,06,44,9.70
2009,05,28,06,45,9.70
2009,05,28,06,46,9.70
2009,05,28,06,47,9.80
2009,05,28,06,48,9.80
2009,05,28,06,49,9.80
2009,05,28,06,50,9.90
2009,05,28,06,51,9.90
2009,05,28,06,52,9.90
2009,05,28,06,53,10.00
2009,05,28,06,54,10.00
2009,05,28,06,55,10.10
2009,05,28,06,56,10.10
2009,05,28,06,57,10.20
2009,05,28,06,58,10.20
2009,05,28,06,59,10.20
2009,05,28,07,00,10.30
2009,05,28,07,01,10.30
2009,05,28,07,02,10.30
2009,05,28,07,03,10.30
2009,05,28,07,04,10.40
2009,05,28,07,05,10.40
2009,05,28,07,06,10.40
2009,05,28,07,07,10.50
2009,05,28,07,08,10.50
2009,05,28,07,09,10.50
2009,05,28,07,10,10.50
2009,05,28,07,11,10.50
2009,05,28,07,12,10.50
2009,05,28,07,13,10.50
2009,05,28,07,14,10.60
2009,05,28,07,15,10.60
2009,05,28,07,16,10.60
2009,05,28,07,17,10.60
2009,05,28,07,18,10.60
2009,05,28,07,19,10.70
2009,05,28,07,20,10.70
2009,05,28,07,21,10.80
2009,05,28,07,22,10.80
2009,05,28,07,23,10.80
2009,05,28,07,24,10.80
2009,05,28,07,25,10.80
2009,05,28,07,26,10.80
2009,05,28,07,27,10.90
2009,05,28,07,28,10.90
2009,05,28,07,29,10.90
2009,05,28,07,30,10.90
2009,05,28,07,31,10.90
2009,05,28,07,32,10.90
2009,05,28,07,33,10.90
2009,05,28,07,34,10.90
2009,05,28,07,35,11.00
2009,05,28,07,36,11.00
2009,05,28,07,37,11.10
2009,05,28,07,38,11.10
2009,05,28,07,39,11.10
2009,05,28,07,40,11.10
2009,05,28,07,41,11.10
2009,05,28,07,42,11.10
2009,05,28,07,43,11.10
2009,05,28,07,44,11.10
2009,05,28,07,45,11.10
2009,05,28,07,46,11.20
2009,05,28,07,47,11.20
2009,05,28,07,48,11.20
2009,05,28,07,49,11.30
2009,05,28,07,50,11.40
2009,05,28,07,51,11.40
2009,05,28,07,52,11.50
2009,05,28,07,53,11.50
2009,05,28,07,54,11.50
2009,05,28,07,55,11.40
2009,05,28,07,56,11.50
2009,05,28,07,57,11.50
2009,05,28,07,58,11.50
2009,05,28,07,59,11.40
2009,05,28,08,00,11.40
2009,05,28,08,01,11.40
2009,05,28,08,02,11.40
2009,05,28,08,03,11.50
2009,05,28,08,04,11.50
2009,05,28,08,05,11.50
2009,05,28,08,06,11.60
2009,05,28,08,07,11.70
2009,05,28,08,08,11.80
2009,05,28,08,09,11.90
2009,05,28,08,10,11.90
2009,05,28,08,11,12.00
2009,05,28,08,12,12.00
2009,05,28,08,13,12.10
2009,05,28,08,14,12.10
2009,05,28,08,15,12.20
2009,05,28,08,16,12.30
2009,05,28,08,17,12.40
2009,05,28,08,18,12.50
2009,05,28,08,19,12.60
2009,05,28,08,20,12.70
2009,05,28,08,21,12.80
2009,05,28,08,22,13.00
2009,05,28,08,23,13.10
2009,05,28,08,24,13.20
2009,05,28,08,25,13.30
2009,05,28,08,26,13.30
2009,05,28,08,27,13.50
2009,05,28,08,28,13.50
2009,05,28,08,29,13.60
2009,05,28,08,30,13.60
2009,05,28,08,31,13.60
2009,05,28,08,32,13.50
2009,05,28,08,33,13.50
2009,05,28,08,34,13.50
2009,05,28,08,35,13.60
2009,05,28,08,36,13.70
2009,05,28,08,37,13.80
2009,05,28,08,38,13.90
2009,05,28,08,39,13.90
2009,05,28,08,40,13.90
2009,05,28,08,41,14.00
2009,05,28,08,42,14.10
2009,05,28,08,43,14.20
2009,05,28,08,44,14.30
2009,05,28,08,45,14.40
2009,05,28,08,46,14.50
2009,05,28,08,47,14.70
2009,05,28,08,48,14.80
2009,05,28,08,49,14.90
2009,05,28,08,50,15.00
2009,05,28,08,51,15.00
2009,05,28,08,52,15.00
2009,05,28,08,53,15.00
2009,05,28,08,54,15.00
2009,05,28,08,55,15.00
2009,05,28,08,56,15.00
2009,05,28,08,57,15.00
2009,05,28,08,58,15.00
2009,05,28,08,59,15.00
2009,05,28,09,00,15.00
2009,05,28,09,01,15.00
2009,05,28,09,02,15.00
2009,05,28,09,03,15.00
2009,05,28,09,04,15.00
2009,05,28,09,05,15.00
2009,05,28,09,06,15.00
2009,05,28,09,07,15.00
2009,05,28,09,08,15.00
2009,05,28,09,09,15.00
2009,05,28,09,10,15.00
2009,05,28,09,11,15.00
2009,05,28,09,12,15.00
2009,05,28,09,13,15.10
2009,05,28,09,14,15.20
2009,05,28,09,15,15.20
2009,05,28,09,16,15.20
2009,05,28,09,17,15.20
2009,05,28,09,18,15.20
2009,05,28,09,19,15.20
2009,05,28,09,20,15.20
2009,05,28,09,21,15.30
2009,05,28,09,22,15.30
2009,05,28,09,23,15.30
2009,05,28,09,24,15.30
2009,05,28,09,25,15.40
2009,05,28,09,26,15.40
2009,05,28,09,27,15.40
2009,05,28,09,28,15.50
2009,05,28,09,29,15.50
2009,05,28,09,30,15.50
2009,05,28,09,31,15.50
2009,05,28,09,32,15.60
2009,05,28,09,33,15.70
2009,05,28,09,34,15.70
2009,05,28,09,35,15.70
2009,05,28,09,36,15.70
2009,05,28,09,37,15.80
2009,05,28,09,38,15.80
2009,05,28,09,39,15.80
2009,05,28,09,40,15.80
2009,05,28,09,41,15.80
2009,05,28,09,42,15.80
2009,05,28,09,43,15.70
2009,05,28,09,44,15.60
2009,05,28,09,45,15.60
2009,05,28,09,46,15.60
2009,05,28,09,47,15.60
2009,05,28,09,48,15.60
2009,05,28,09,49,15.70
2009,05,28,09,50,15.70
2009,05,28,09,51,15.70
2009,05,28,09,52,15.80
2009,05,28,09,53,15.80
2009,05,28,09,54,15.80
2009,05,28,09,55,15.80
2009,05,28,09,56,15.80
2009,05,28,09,57,15.80
2009,05,28,09,58,15.90
2009,05,28,09,59,16.00
2009,05,28,10,00,16.10
2009,05,28,10,01,16.20
2009,05,28,10,02,16.20
2009,05,28,10,03,16.30
2009,05,28,10,04,16.40
2009,05,28,10,05,16.50
2009,05,28,10,06,16.50
2009,05,28,10,07,16.50
2009,05,28,10,08,16.50
2009,05,28,10,09,16.50
2009,05,28,10,10,16.50
2009,05,28,10,11,16.40
2009,05,28,10,12,16.30
2009,05,28,10,13,16.20
2009,05,28,10,14,16.10
2009,05,28,10,15,15.90
2009,05,28,10,16,15.80
2009,05,28,10,17,15.70
2009,05,28,10,18,15.60
2009,05,28,10,19,15.50
2009,05,28,10,20,15.50
2009,05,28,10,21,15.40
2009,05,28,10,22,15.40
2009,05,28,10,23,15.50
2009,05,28,10,24,15.50
2009,05,28,10,25,15.70
2009,05,28,10,26,15.80
2009,05,28,10,27,15.90
2009,05,28,10,28,16.10
2009,05,28,10,29,16.20
2009,05,28,10,30,16.30
2009,05,28,10,31,16.30
2009,05,28,10,32,16.30
2009,05,28,10,33,16.30
2009,05,28,10,34,16.30
2009,05,28,10,35,16.30
2009,05,28,10,36,16.30
2009,05,28,10,37,16.30
2009,05,28,10,38,16.30
2009,05,28,10,39,16.20
2009,05,28,10,40,16.20
2009,05,28,10,41,16.20
2009,05,28,10,42,16.20
2009,05,28,10,43,16.30
2009,05,28,10,44,16.30
2009,05,28,10,45,16.50
2009,05,28,10,46,16.60
2009,05,28,10,47,16.70
2009,05,28,10,48,16.80
2009,05,28,10,49,16.90
2009,05,28,10,50,17.00
2009,05,28,10,51,17.10
2009,05,28,10,52,17.00
2009,05,28,10,53,16.90
2009,05,28,10,54,16.90
2009,05,28,10,55,16.90
2009,05,28,10,56,17.00
2009,05,28,10,57,17.10
2009,05,28,10,58,17.20
2009,05,28,10,59,17.30
2009,05,28,11,00,17.30
2009,05,28,11,01,17.30
2009,05,28,11,02,17.40
2009,05,28,11,03,17.50
2009,05,28,11,04,17.60
2009,05,28,11,05,17.60
2009,05,28,11,06,17.60
2009,05,28,11,07,17.60
2009,05,28,11,08,17.50
2009,05,28,11,09,17.40
2009,05,28,11,10,17.40
2009,05,28,11,11,17.40
2009,05,28,11,12,17.50
2009,05,28,11,13,17.60
2009,05,28,11,14,17.70
2009,05,28,11,15,17.80
2009,05,28,11,16,18.00
2009,05,28,11,17,18.20
2009,05,28,11,18,18.30
2009,05,28,11,19,18.50
2009,05,28,11,20,18.60
2009,05,28,11,21,18.60
2009,05,28,11,22,18.70
2009,05,28,11,23,18.80
2009,05,28,11,24,18.80
2009,05,28,11,25,18.80
2009,05,28,11,26,18.70
2009,05,28,11,27,18.60
2009,05,28,11,28,18.50
2009,05,28,11,29,18.40
2009,05,28,11,30,18.30
2009,05,28,11,31,18.20
2009,05,28,11,32,18.10
2009,05,28,11,33,18.00
2009,05,28,11,34,17.90
2009,05,28,11,35,17.90
2009,05,28,11,36,17.90
2009,05,28,11,37,17.90
2009,05,28,11,38,17.90
2009,05,28,11,39,17.90
2009,05,28,11,40,17.90
2009,05,28,11,41,17.90
2009,05,28,11,42,17.90
2009,05,28,11,43,18.00
2009,05,28,11,44,18.00
2009,05,28,11,45,18.10
2009,05,28,11,46,18.10
2009,05,28,11,47,18.20
2009,05,28,11,48,18.30
2009,05,28,11,49,18.40
2009,05,28,11,50,18.40
2009,05,28,11,51,18.50
2009,05,28,11,52,18.50
2009,05,28,11,53,18.60
2009,05,28,11,54,18.70
2009,05,28,11,55,18.80
2009,05,28,11,56,18.80
2009,05,28,11,57,18.80
2009,05,28,11,58,18.90
2009,05,28,11,59,18.90
2009,05,28,12,00,18.80
2009,05,28,12,01,18.70
2009,05,28,12,02,18.70
2009,05,28,12,03,18.70
2009,05,28,12,04,18.70
2009,05,28,12,05,18.70
2009,05,28,12,06,18.70
2009,05,28,12,07,18.70
2009,05,28,12,08,18.70
2009,05,28,12,09,18.80
2009,05,28,12,10,18.80
2009,05,28,12,11,18.80
2009,05,28,12,12,18.90
2009,05,28,12,13,19.00
2009,05,28,12,14,19.00
2009,05,28,12,15,19.10
2009,05,28,12,16,19.20
2009,05,28,12,17,19.20
2009,05,28,12,18,19.20
2009,05,28,12,19,19.20
2009,05,28,12,20,19.10
2009,05,28,12,21,19.10
2009,05,28,12,22,19.00
2009,05,28,12,23,19.00
2009,05,28,12,24,19.00
2009,05,28,12,25,19.00
2009,05,28,12,26,19.10
2009,05,28,12,27,19.20
2009,05,28,12,28,19.30
2009,05,28,12,29,19.40
2009,05,28,12,30,19.50
2009,05,28,12,31,19.60
2009,05,28,12,32,19.70
2009,05,28,12,33,19.70
2009,05,28,12,34,19.70
2009,05,28,12,35,19.70
2009,05,28,12,36,19.70
2009,05,28,12,37,19.80
2009,05,28,12,38,19.80
2009,05,28,12,39,19.90
2009,05,28,12,40,19.90
2009,05,28,12,41,20.00
2009,05,28,12,42,20.00
2009,05,28,12,43,20.10
2009,05,28,12,44,20.10
2009,05,28,12,45,20.20
2009,05,28,12,46,20.20
2009,05,28,12,47,20.20
2009,05,28,12,48,20.20
2009,05,28,12,49,20.20
2009,05,28,12,50,20.10
2009,05,28,12,51,20.10
2009,05,28,12,52,20.10
2009,05,28,12,53,20.00
2009,05,28,12,54,20.00
2009,05,28,12,55,19.90
2009,05,28,12,56,19.90
2009,05,28,12,57,19.80
2009,05,28,12,58,19.80
2009,05,28,12,59,19.90
2009,05,28,13,00,19.90
2009,05,28,13,01,19.90
2009,05,28,13,02,19.80
2009,05,28,13,03,19.70
2009,05,28,13,04,19.70
2009,05,28,13,05,19.70
2009,05,28,13,06,19.80
2009,05,28,13,07,19.90
2009,05,28,13,08,19.90
2009,05,28,13,09,19.90
2009,05,28,13,10,19.90
2009,05,28,13,11,19.80
2009,05,28,13,12,19.80
2009,05,28,13,13,19.80
2009,05,28,13,14,19.80
2009,05,28,13,15,19.90
2009,05,28,13,16,19.90
2009,05,28,13,17,19.90
2009,05,28,13,18,20.00
2009,05,28,13,19,20.10
2009,05,28,13,20,20.20
2009,05,28,13,21,20.20
2009,05,28,13,22,20.10
2009,05,28,13,23,20.10
2009,05,28,13,24,20.00
2009,05,28,13,25,19.90
2009,05,28,13,26,19.90
2009,05,28,13,27,19.90
2009,05,28,13,28,19.90
2009,05,28,13,29,19.90
2009,05,28,13,30,19.90
2009,05,28,13,31,19.90
2009,05,28,13,32,19.90
2009,05,28,13,33,19.90
2009,05,28,13,34,20.00
2009,05,28,13,35,20.10
2009,05,28,13,36,20.10
2009,05,28,13,37,20.10
2009,05,28,13,38,20.20
2009,05,28,13,39,20.30
2009,05,28,13,40,20.30
2009,05,28,13,41,20.30
2009,05,28,13,42,20.30
2009,05,28,13,43,20.20
2009,05,28,13,44,20.20
2009,05,28,13,45,20.20
2009,05,28,13,46,20.20
2009,05,28,13,47,20.30
2009,05,28,13,48,20.30
2009,05,28,13,49,20.30
2009,05,28,13,50,20.30
2009,05,28,13,51,20.40
2009,05,28,13,52,20.40
2009,05,28,13,53,20.40
2009,05,28,13,54,20.40
2009,05,28,13,55,20.30
2009,05,28,13,56,20.30
2009,05,28,13,57,20.20
2009,05,28,13,58,20.20
2009,05,28,13,59,20.20
2009,05,28,14,00,20.10
2009,05,28,14,01,20.10
2009,05,28,14,02,20.20
2009,05,28,14,03,20.20
2009,05,28,14,04,20.30
2009,05,28,14,05,20.30
2009,05,28,14,06,20.20
2009,05,28,14,07,20.30
2009,05,28,14,08,20.30
2009,05,28,14,09,20.30
2009,05,28,14,10,20.30
2009,05,28,14,11,20.30
2009,05,28,14,12,20.20
2009,05,28,14,13,20.10
2009,05,28,14,14,20.10
2009,05,28,14,15,20.00
2009,05,28,14,16,19.90
2009,05,28,14,17,19.90
2009,05,28,14,18,19.90
2009,05,28,14,19,20.00
2009,05,28,14,20,20.00
2009,05,28,14,21,20.00
2009,05,28,14,22,20.10
2009,05,28,14,23,20.10
2009,05,28,14,24,20.20
2009,05,28,14,25,20.20
2009,05,28,14,26,20.20
2009,05,28,14,27,20.20
2009,05,28,14,28,20.20
2009,05,28,14,29,20.30
2009,05,28,14,30,20.40
2009,05,28,14,31,20.40
2009,05,28,14,32,20.50
2009,05,28,14,33,20.40
2009,05,28,14,34,20.50
2009,05,28,14,35,20.50
2009,05,28,14,36,20.50
2009,05,28,14,37,20.50
2009,05,28,14,38,20.50
2009,05,28,14,39,20.40
2009,05,28,14,40,20.40
2009,05,28,14,41,20.40
2009,05,28,14,42,20.40
2009,05,28,14,43,20.40
2009,05,28,14,44,20.40
2009,05,28,14,45,20.40
2009,05,28,14,46,20.50
2009,05,28,14,47,20.50
2009,05,28,14,48,20.60
2009,05,28,14,49,20.70
2009,05,28,14,50,20.80
2009,05,28,14,51,20.80
2009,05,28,14,52,20.80
2009,05,28,14,53,20.80
2009,05,28,14,54,20.80
2009,05,28,14,55,20.90
2009,05,28,14,56,21.00
2009,05,28,14,57,21.00
2009,05,28,14,58,21.00
2009,05,28,14,59,21.00
2009,05,28,15,00,21.00
2009,05,28,15,01,21.00
2009,05,28,15,02,21.00
2009,05,28,15,03,21.00
2009,05,28,15,04,20.90
2009,05,28,15,05,20.90
2009,05,28,15,06,20.90
2009,05,28,15,07,20.90
2009,05,28,15,08,20.80
2009,05,28,15,09,20.80
2009,05,28,15,10,20.70
2009,05,28,15,11,20.70
2009,05,28,15,12,20.70
2009,05,28,15,13,20.70
2009,05,28,15,14,20.80
2009,05,28,15,15,20.90
2009,05,28,15,16,20.90
2009,05,28,15,17,21.00
2009,05,28,15,18,21.00
2009,05,28,15,19,21.00
2009,05,28,15,20,21.00
2009,05,28,15,21,21.00
2009,05,28,15,22,21.10
2009,05,28,15,23,21.10
2009,05,28,15,24,21.10
2009,05,28,15,25,21.00
2009,05,28,15,26,20.90
2009,05,28,15,27,20.90
2009,05,28,15,28,21.00
2009,05,28,15,29,21.00
2009,05,28,15,30,21.10
2009,05,28,15,31,21.20
2009,05,28,15,32,21.20
2009,05,28,15,33,21.20
2009,05,28,15,34,21.20
2009,05,28,15,35,21.10
2009,05,28,15,36,21.00
2009,05,28,15,37,20.80
2009,05,28,15,38,20.80
2009,05,28,15,39,20.80
2009,05,28,15,40,20.80
2009,05,28,15,41,20.80
2009,05,28,15,42,20.80
2009,05,28,15,43,20.80
2009,05,28,15,44,20.90
2009,05,28,15,45,20.90
2009,05,28,15,46,20.90
2009,05,28,15,47,20.90
2009,05,28,15,48,20.90
2009,05,28,15,49,20.90
2009,05,28,15,50,21.00
2009,05,28,15,51,21.00
2009,05,28,15,52,21.00
2009,05,28,15,53,21.10
2009,05,28,15,54,21.10
2009,05,28,15,55,21.10
2009,05,28,15,56,21.20
2009,05,28,15,57,21.20
2009,05,28,15,58,21.20
2009,05,28,15,59,21.20
2009,05,28,16,00,21.20
2009,05,28,16,01,21.30
2009,05,28,16,02,21.40
2009,05,28,16,03,21.60
2009,05,28,16,04,21.70
2009,05,28,16,05,21.70
2009,05,28,16,06,21.80
2009,05,28,16,07,21.80
2009,05,28,16,08,21.80
2009,05,28,16,09,21.80
2009,05,28,16,10,21.80
2009,05,28,16,11,21.80
2009,05,28,16,12,21.80
2009,05,28,16,13,21.90
2009,05,28,16,14,21.90
2009,05,28,16,15,21.90
2009,05,28,16,16,22.00
2009,05,28,16,17,22.00
2009,05,28,16,18,22.00
2009,05,28,16,19,22.00
2009,05,28,16,20,22.00
2009,05,28,16,21,22.00
2009,05,28,16,22,22.10
2009,05,28,16,23,22.10
2009,05,28,16,24,22.10
2009,05,28,16,25,22.10
2009,05,28,16,26,22.10
2009,05,28,16,27,22.20
2009,05,28,16,28,22.20
2009,05,28,16,29,22.20
2009,05,28,16,30,22.20
2009,05,28,16,31,22.20
2009,05,28,16,32,22.30
2009,05,28,16,33,22.30
2009,05,28,16,34,22.40
2009,05,28,16,35,22.40
2009,05,28,16,36,22.40
2009,05,28,16,37,22.50
2009,05,28,16,38,22.50
2009,05,28,16,39,22.40
2009,05,28,16,40,22.40
2009,05,28,16,41,22.40
2009,05,28,16,42,22.40
2009,05,28,16,43,22.40
2009,05,28,16,44,22.40
2009,05,28,16,45,22.40
2009,05,28,16,46,22.40
2009,05,28,16,47,22.50
2009,05,28,16,48,22.60
2009,05,28,16,49,22.60
2009,05,28,16,50,22.60
2009,05,28,16,51,22.60
2009,05,28,16,52,22.60
2009,05,28,16,53,22.60
2009,05,28,16,54,22.60
2009,05,28,16,55,22.50
2009,05,28,16,56,22.50
2009,05,28,16,57,22.50
2009,05,28,16,58,22.50
2009,05,28,16,59,22.50
2009,05,28,17,00,22.40
2009,05,28,17,01,22.40
2009,05,28,17,02,22.40
2009,05,28,17,03,22.40
2009,05,28,17,04,22.50
2009,05,28,17,05,22.50
2009,05,28,17,06,22.60
2009,05,28,17,07,22.70
2009,05,28,17,08,22.70
2009,05,28,17,09,22.70
2009,05,28,17,10,22.80
2009,05,28,17,11,22.80
2009,05,28,17,12,22.90
2009,05,28,17,13,22.90
2009,05,28,17,14,23.00
2009,05,28,17,15,23.00
2009,05,28,17,16,23.10
2009,05,28,17,17,23.10
2009,05,28,17,18,23.10
2009,05,28,17,19,23.10
2009,05,28,17,20,23.10
2009,05,28,17,21,23.10
2009,05,28,17,22,23.00
2009,05,28,17,23,22.90
2009,05,28,17,24,22.80
2009,05,28,17,25,22.80
2009,05,28,17,26,22.80
2009,05,28,17,27,22.80
2009,05,28,17,28,22.80
2009,05,28,17,29,22.90
2009,05,28,17,30,22.90
2009,05,28,17,31,22.90
2009,05,28,17,32,23.00
2009,05,28,17,33,23.00
2009,05,28,17,34,23.10
2009,05,28,17,35,23.10
2009,05,28,17,36,23.10
2009,05,28,17,37,23.20